This demonstration page uses our WeatherBlox Daily Observations layout. Learn more.

Left ArrowRight Arrow

Hourly Observations for September 23, 2020

Temp ( °F °C ) Dew Point ( °F °C ) Humidity (%) Winds ( mph kmh ) Pressure ( in mb ) Visibility ( mi km ) Precip ( " mm )
12:54 am 00:54 Clear 60 15.6 56 13.3 86 86 SSE 6 9 30.01 1016 9 14.48406 0 0
1:54 am 01:54 Clear 61 16.1 58 14.4 90 90 SSE 3 6 30.01 1016 9 14.48406 0 0
2:54 am 02:54 Clear 61 16.1 58 14.4 90 90 SSE 3 6 30.01 1016 9 14.48406 0 0
3:54 am 03:54 Clear 61 16.1 57 13.9 87 87 Calm 30.01 1016 9 14.48406 0 0
4:54 am 04:54 Clear 61 16.1 58 14.4 90 90 SSE 3 6 30 1016 9 14.48406 0 0
5:54 am 05:54 Clear 59 15 57 13.9 93 93 SSE 5 7 30 1016 9 14.48406 0 0
6:54 am 06:54 Clear with Mist and Fog 59 15 57 13.9 93 93 SSE 3 6 30.01 1016 5 8.0467 0 0
6:59 am 06:59 Clear with Mist and Fog 59 15 57 13.9 93 93 Calm 30.02 1017 1.75 2.816345 0 0
7:08 am 07:08 Mostly Clear 59 15 57 13.9 93 93 SSE 3 6 30.02 1017 10 16.0934 0 0
7:36 am 07:36 Mostly Cloudy 57 13.9 56 13.3 96 96 SSE 3 6 30.02 1017 10 16.0934 0 0
7:54 am 07:54 Cloudy with Mist and Fog 60 15.6 58 14.4 93 93 SSE 5 7 30.02 1017 1 1.60934 0 0
8:54 am 08:54 Mostly Cloudy with Mist and Fog 62 16.7 61 16.1 96 96 S 5 7 30.02 1017 3 4.82802 0 0
9:20 am 09:20 Mostly Sunny 64 17.8 62 16.7 93 93 SW 8 13 30.01 1016 9 14.48406 0 0
9:54 am 09:54 Mostly Sunny 69 20.6 62 16.7 78 78 SW 6 9 30.01 1016 9 14.48406 0 0
10:25 am 10:25 Mostly Cloudy 69 20.6 61 16.1 76 76 SW 14 22 30 1016 9 14.48406 0 0
10:43 am 10:43 Cloudy 70 21.1 61 16.1 73 73 SSW 12 19 30 1016 9 14.48406 0 0
10:54 am 10:54 Cloudy 70 21.1 61 16.1 73 73 SW 10 17 30.01 1016 9 14.48406 0 0
11:50 am 11:50 Cloudy 70 21 61 16 73 73 S 13 20 30 1016 9 14.48406 0 0
11:54 am 11:54 Cloudy 70 21.1 61 16.1 73 73 S 12 19 30.01 1016 9 14.48406 0 0
12:28 pm 12:28 Partly Cloudy 74 23.3 62 16.7 67 67 S 15 24 29.97 1015 9 14.48406 0 0
12:47 pm 12:47 Hazy 76 24.4 61 16.1 60 60 S 17 28 29.96 1015 1.5 2.41401 0 0
12:54 pm 12:54 Partly Cloudy 76 24.4 61 16.1 60 60 S 10 17 29.98 1015 10 16.0934 0 0
1:54 pm 13:54 Sunny 79 26.1 60 15.6 52 52 S 14 22 29.96 1015 N/A 0 0
2:54 pm 14:54 Hazy 81 27.2 59 15 47 47 SSW 15 24 29.92 1013 4 6.43736 0 0
3:54 pm 15:54 Sunny 82 27.8 58 14.4 44 44 S 16 26 29.9 1013 10 16.0934 0 0
4:54 pm 16:54 Sunny 81 27.2 58 14.4 45 45 SSW 12 19 29.88 1012 4 6.43736 0 0
5:54 pm 17:54 Sunny 79 26.1 58 14.4 49 49 SSW 12 19 29.88 1012 4 6.43736 0 0
6:54 pm 18:54 Sunny 75 23.9 59 15 58 58 S 10 17 29.88 1012 4 6.43736 0 0
7:54 pm 19:54 Clear 70 21.1 60 15.6 71 71 S 12 19 29.89 1012 6 9.65604 0 0
8:54 pm 20:54 Clear 67 19.4 59 15 76 76 S 9 15 29.9 1013 6 9.65604 0 0
9:54 pm 21:54 Clear 64 17.8 59 15 84 84 S 8 13 29.9 1013 6 9.65604 0 0
10:54 pm 22:54 Clear 63 17.2 59 15 87 87 S 7 11 29.9 1013 6 9.65604 0 0
11:54 pm 23:54 Clear 63 17.2 59 15 87 87 S 5 7 29.9 1012 6 9.65604 0 0

Powered by AerisWeather